User: anonymous   Login
Location: Unspecified
(0.0000°N, 0.0000°E)
Time: 00:14:56
(UTC+00:00)
Language:

Kyokko - Orbit

View from above orbital plane
View from above orbital plane
View from above satellite
View from above satellite

Ground track
Ground track

The orbit data is extracted from the following two-line orbital elements,

1 10664U 78014A   17326.53394675 -.00000021 +00000-0 +20144-4 0  9997
2 10664 065.3779 023.1973 1896992 053.6150 322.5237 10.75470094546292
Epoch (UTC): 22 November 2017 12:48:52
Eccentricity: 0.1896992
inclination: 65.3779°
perigee height: 647 km
apogee height: 3936 km
right ascension of ascending node: 23.1973°
argument of perigee: 53.6150°
revolutions per day: 10.75470094
mean anomaly at epoch: 322.5237°
orbit number at epoch: 54629

The dashed part of the orbit path shows where the satellite is in the earth's shadow,  

DLR